This is the latest recevied weather packets stored in our database for station/object 9M2KEV-13. If no packets are shown the sender has not sent any weather packets the latest 10 day(s).
| Time | Temp. | Humidity | Pressure | Rain* | Wind** | Luminosity | Snow |
|---|---|---|---|---|---|---|---|
| 1788146401 | 91° F | 54% | 758.5 mmHg | 0 in | - | - | - |
| 1788145801 | 91° F | 55% | 758.5 mmHg | 0 in | - | - | - |
| 1788145201 | 90° F | 56% | 758.8 mmHg | 0 in | - | - | - |
| 1788144601 | 89° F | 57% | 758.8 mmHg | 0 in | - | - | - |
| 1788144001 | 89° F | 58% | 758.8 mmHg | 0 in | - | - | - |
| 1788143401 | 88° F | 60% | 758.9 mmHg | 0 in | - | - | - |
| 1788142801 | 87° F | 66% | 758.7 mmHg | 0 in | - | - | - |
| 1788142201 | 86° F | 66% | 758.8 mmHg | 0 in | - | - | - |
| 1788141601 | 87° F | 64% | 758.9 mmHg | 0 in | - | - | - |
| 1788141001 | 86° F | 67% | 758.9 mmHg | 0 in | - | - | - |
| 1788140401 | 85° F | 67% | 759 mmHg | 0 in | - | - | - |
| 1788139801 | 84° F | 72% | 759 mmHg | 0 in | - | - | - |
| 1788139201 | 84° F | 72% | 759.1 mmHg | 0 in | - | - | - |
| 1788138601 | 83° F | 74% | 758.9 mmHg | 0 in | - | - | - |
| 1788138001 | 82° F | 75% | 758.8 mmHg | 0 in | - | - | - |
| 1788137401 | 83° F | 75% | 758.6 mmHg | 0 in | - | - | - |
| 1788136801 | 81° F | 79% | 758.6 mmHg | 0 in | - | - | - |
| 1788136201 | 81° F | 79% | 758.3 mmHg | 0 in | - | - | - |
| 1788135601 | 81° F | 80% | 758.2 mmHg | 0 in | - | - | - |
| 1788135001 | 80° F | 82% | 758.3 mmHg | 0 in | - | - | - |
| 1788134401 | 79° F | 84% | 758.1 mmHg | 0 in | - | - | - |
| 1788133801 | 78° F | 84% | 758 mmHg | 0 in | - | - | - |
| 1788133201 | 78° F | 84% | 757.9 mmHg | 0 in | - | - | - |
| 1788132601 | 78° F | 86% | 757.9 mmHg | 0 in | - | - | - |
| 1788132001 | 78° F | 85% | 757.8 mmHg | 0 in | - | - | - |
* Rain latest hour (hover to see other rain measurements)
** Current wind speed in m/s (hover to see current wind gust speed)